Powrót do katalogu

BEIJING-3C 03

AktywnyNaukaSSO
NORAD 59807·PAYLOAD·🇨🇳 China
Ta nazwa satelity nie została jeszcze potwierdzona przez oficjalne źródła.

Wystrzelony May 20, 2024 z Taiyuan Satellite Launch Center

Loading…

Następne Przeloty (najbliższe 24 godziny)

TLE

ŚwieżeSource: Space-Track

Epoka: Sep 14, 2026, 22:35 UTC

1 59807U 24094C   26257.94116176  .00005627  00000-0  28880-3 0  9994
2 59807  97.3841 326.8515 0002171  61.6485 298.4968 15.16909585128763

Śledź BEIJING-3C 03 w czasie rzeczywistym z AllMySat

Download on the App Store